Weather in Kirovskiy

Russia / Tyumen Oblast     56°43′03″N   65°44′18″E
temp.,
°C
wind,
m/s
gust,
m/s
humid.,
%
clouds,
%
prec.,
mm/h
press.,
hPa
HPBL,
m
18 april, sun
sun1823:00+5wsw36575 0.0 1018105
02:00+3w37696 0.0 1015119
05:00+3w5127244 0.0 1014329
08:00+6wnw6126798 0.0 1013918
11:00+5nnw9125699 0.2 10151875
14:00+2n9114298 0.0 10211868
17:00+2nne810295 0.0 10251974
20:00−2nne610400 0.0 10281248
19 april, mon
mon1923:00−4nne510450 0.0 10311256
02:00−5nne48472 0.0 10321216
05:00−6nne36480 0.0 1034795
08:00−4n46395 0.0 10351341
11:00−1n4633100 0.0 10351932
14:00+1n5627100 0.0 10342289
17:00+1n4628100 0.0 10342297
20:00−2nne22425 0.0 103417
20 april, tue
tue2023:00−3ene11480 0.0 103511
02:00−4sse11485 0.0 103510
05:00−4w23515 0.0 103557
08:000w363342 0.0 1034430
11:00+4w573070 0.0 10311368
14:00+8wnw68285 0.0 10291751
17:00+9nw69337 0.0 10271674
20:00+5wnw38525 0.0 1027140
21 april, wed
wed2123:00+3nw411605 0.0 1027231
02:00+2nw3972100 0.0 1027188
05:00+1nnw378039 0.0 1029194
08:00+4n49717 0.0 1031599
11:00+8n575480 0.0 10311413
14:00+9n564784 0.0 10321638
17:00+9n554568 0.0 10331612
20:00+6n236034 0.0 103556
22 april, thu
thu2223:00+3ene11622 0.0 103610
02:00+2se22620 0.0 103821
05:000sse22682 0.0 103937
08:00+4s34545 0.0 1040305
11:00+9s44405 0.0 10401106
14:00+11s443743 0.0 10401656
17:00+12s4438100 0.0 10391771
20:00+8sse49535 0.0 1040204